Regional Weather Roundup
Issued by NWS San Angelo, TX

Home | Current Version | Previous Version | Text Only | Print | Product List | Glossary On
Versions: 1 2 3 4 5 6 7 8 9 10 11 12 13 14 15 16 17 18 19 20 21 22 23 24 25 26 27 28 29 30 31 32 33 34 35 36 37 38 39 40 41 42 43 44 45 46 47 48 49 50
000
ASUS44 KSJT 080410
RWRSJT
WEST CENTRAL TEXAS REGIONAL WEATHER ROUNDUP
NATIONAL WEATHER SERVICE SAN ANGELO TX
1100 PM CDT TUE JUL 07 2015

NOTE: "FAIR" INDICATES FEW OR NO CLOUDS BELOW 12,000 FEET WITH NO
SIGNIFICANT WEATHER AND/OR OBSTRUCTIONS TO VISIBILITY.

TXZ049-054-064>066-071>073-076>078-098-099-113-114-127-128-139-140-
154-155-168>170-080500
...LOCATIONS ACROSS WEST CENTRAL TEXAS...

CITY           SKY/WX    TMP DP  RH WIND       PRES   REMARKS
SAN ANGELO     CLOUDY    73  69  87 CALM      30.00R
ABILENE        RAIN      71  69  93 N7        30.02R FOG
DYESS AFB      RAIN      70  68  94 N9        30.01R FOG
JUNCTION       CLOUDY    82  69  64 S8        29.97R
SWEETWATER     CLOUDY    68  68 100 N9        30.07R
BROWNWOOD      CLOUDY    75  75 100 N3        29.98R
COLEMAN        LGT RAIN  75  75 100 CALM      30.00R
SONORA         CLOUDY    72  72 100 CALM      30.04S
OZONA          FAIR      70  68  94 CALM      30.04S
BRADY          CLOUDY    77  72  83 SW5       29.99R
$$

TEXAS PANHANDLE/OKLAHOMA PANHANDLE

CITY           SKY/WX    TMP DP  RH WIND       PRES   REMARKS
AMARILLO       MOCLDY    62  58  86 E7        30.12S FOG
BORGER         MOCLDY    63  55  75 E7        30.11R HAZE
CANADIAN       CLOUDY    63  61  92 NE5       30.08S
DALHART        CLOUDY    65  57  75 SE7       30.15R HAZE
DUMAS          MOCLDY    60  57  89 E7        30.13R FOG
GUYMON         NOT AVBL
HEREFORD         N/A     63  62  96 MISG      30.14R FOG
PAMPA          CLOUDY    60  56  84 CALM      30.12R
PERRYTON       MOCLDY    59  47  64 NE5       30.11R
$$

SOUTHERN PANHANDLE/SOUTH PLAINS/ROLLING PLAINS

CITY           SKY/WX    TMP DP  RH WIND       PRES   REMARKS
LUBBOCK        DRIZZLE   65  62  90 NE7       30.11R
SNYDER         CLOUDY    67  65  93 N10       30.06R
CHILDRESS      CLOUDY    66  62  87 N9        30.06R
SEMINOLE       CLOUDY    68  62  82 NE5       30.12R
$$

PERMIAN BASIN

CITY           SKY/WX    TMP DP  RH WIND       PRES   REMARKS
MIDLAND        CLOUDY    72  65  78 N13       30.07R
ODESSA         MOCLDY    72  65  78 NE14      30.08R
WINK           CLOUDY    76  64  66 NE14      30.05R
$$

FAR WEST/SOUTHWEST MOUNTAINS/TRANS PECOS

CITY           SKY/WX    TMP DP  RH WIND       PRES   REMARKS
ALPINE         MOCLDY    73  66  78 SE8       30.19R
DRYDEN           N/A     72  69  90 NW12      30.00R
EL PASO        MOCLDY    72  62  71 E7        30.05R
FORT STOCKTON  CLOUDY    74  68  81 SE7       30.05R
GUADALUPE PASS   N/A    N/A N/A N/A MISG        N/A
MARFA          MOCLDY   N/A N/A N/A NE14      30.17R
PECOS          CLOUDY    78  65  63 NE15      30.04R
$$

DALLAS/FORT WORTH METROPLEX

CITY           SKY/WX    TMP DP  RH WIND       PRES   REMARKS
DFW AIRPORT    CLOUDY    84  72  67 S20G26    29.94R
FTW MEACHAM    CLOUDY    84  74  71 S15       29.94R
DAL-EXECUTIVE  CLOUDY    83  72  69 S12G23    29.96R
GRAND PRAIRIE  CLOUDY    83  73  71 SE15G23   29.97R
ADDISON        CLOUDY    84  74  71 S14       29.97R
MESQUITE       CLOUDY    81  74  79 S9        29.97R
LANCASTER      CLOUDY    82  71  69 S10G18    29.98R
$$

NORTH CENTRAL TEXAS

CITY           SKY/WX    TMP DP  RH WIND       PRES   REMARKS
SHRMAN/DENISON CLOUDY    81  75  81 SE14      29.96R
GAINESVILLE    CLOUDY    78  73  84 SE7       29.95S
BRIDGEPORT     CLOUDY    77  77 100 CALM      29.96R
DENTON         CLOUDY    83  73  72 S13       29.94R
WAXAHACHIE     CLOUDY    82  73  74 S12G20    29.99R
GRANBURY       CLOUDY    84  71  63 SE14      29.96R
$$

WESTERN NORTH TEXAS

CITY           SKY/WX    TMP DP  RH WIND       PRES   REMARKS
WICHITA FALLS  LGT RAIN  68  67  96 N9        29.97R FOG
VERNON         CLOUDY    68  62  81 N12       30.02R
BRECKENRIDGE   RAIN      73  73  98 NW6       29.98R
COMANCHE       HVY RAIN  74  74 100 W7        29.98R
$$

CENTRAL AND SOUTH CENTRAL TEXAS

CITY           SKY/WX    TMP DP  RH WIND       PRES   REMARKS
AUSTIN/BERGSTM PTCLDY    79  73  82 S14       29.98R
WACO           MOCLDY    82  73  74 S13G24    29.97R
HILLSBORO      CLOUDY    81  71  71 S10G18    29.98R
TEMPLE         MOCLDY    81  68  65 S17       29.98R
KILLEEN-GRAY   NOT AVBL
FORT HOOD      NOT AVBL
GEORGETOWN     PTCLDY    81  72  74 S13G18    29.97R
LAGO VISTA     CLOUDY    80  72  76 S9        30.01R
SAN MARCOS     PTCLDY   N/A N/A N/A S13       29.99R
NEW BRAUNFELS  MOCLDY    80  75  84 S13       29.98R
RANDOLPH AFB   CLOUDY    79  74  84 S10       30.00R
SAN ANTONIO    CLOUDY    82  74  76 SE17G24   29.99R
STINSON        CLOUDY    80  75  84 SE9       29.97R
PLEASANTON     NOT AVBL
LA GRANGE      PTCLDY    81  77  90 SE8       29.99S
GIDDINGS       PTCLDY    79  74  83 S8        30.05R
$$

EAST TEXAS

CITY           SKY/WX    TMP DP  RH WIND       PRES   REMARKS
PARIS          PTCLDY    75  70  83 SE7       29.98S
CLARKSVILLE    NOT AVBL
TYLER          PTCLDY    79  72  79 S12       30.01R
LONGVIEW       PTCLDY    82  75  79 S9        30.01R
PALESTINE      PTCLDY    78  73  84 SE7       30.03R
NACOGDOCHES    PTCLDY   N/A N/A N/A S8        30.04R
$$

TEXAS HILL COUNTRY AND EDWARDS PLATEAU

CITY           SKY/WX    TMP DP  RH WIND       PRES   REMARKS
LLANO          CLOUDY    82  72  69 S15G23    30.00R
HORSESHOE BAY  FAIR      81  73  76 S7G22     29.98R
KERRVILLE      CLOUDY    76  74  93 SE10      30.01R
FREDERICKSBRG  CLOUDY    77  72  85 S10G16    30.00S
ROCKSPRINGS    CLOUDY    77  70  78 SE8       30.02F
HONDO          CLOUDY    81  75  82 SE16      29.99R
UVALDE         MOCLDY    82  75  79 SE12G22   29.96R
DEL RIO        CLOUDY    80  72  76 SW6       29.94R
$$

SOUTHEAST TEXAS

CITY           SKY/WX    TMP DP  RH WIND       PRES   REMARKS
COLLEGE STN    PTCLDY    81  73  76 SE12      30.01R
CALDWELL       PTCLDY    79  75  89 SE12      30.04R
CROCKETT       CLEAR     79  77  94 S3        30.06R
BRENHAM        PTCLDY    81  76  83 SE6       30.03R
HUNTSVILLE     CLEAR     81  74  79 VRB6      30.03R
CONROE         PTCLDY    79  74  84 SE5       30.04R
HOUSTON BUSH   MOCLDY    83  77  82 S6        30.04R
HOUSTON HOBBY  MOCLDY    82  76  81 S9        30.03R
PERLAND        PTCLDY    83  76  79 SE7       30.05R
WHARTON        PTCLDY    78  76  93 SE5       30.03R
$$

THE UPPER TEXAS COAST

CITY           SKY/WX    TMP DP  RH WIND       PRES   REMARKS
ORANGE         CLEAR     82  81  98 CALM      30.07R
PORT ARTHUR    CLEAR     80  77  90 S7        30.05R
GALVESTON      PTCLDY    84  79  85 S14       30.05R
ANGLETON       MOCLDY    83  79  88 S9        30.03R
BAY CITY       CLOUDY    82  80  92 SE6       30.03R
$$

TEXAS COASTAL BEND, RIO GRANDE PLAINS DEEP SOUTH TEXAS

CITY           SKY/WX    TMP DP  RH WIND       PRES   REMARKS
VICTORIA       CLOUDY    81  79  94 S7        30.01R
BEEVILLE       FAIR      80  78  94 SE9G18    29.99R
ROCKPORT       LGT RAIN  83  78  85 S8G17     29.99R
PORT ARANSAS   CLOUDY    81  79  94 SE10      29.99R
PORT LAVACA    CLOUDY    81  79  94 SE7       30.01R FOG
CORPUS CHRISTI MOCLDY    82  78  88 SE15      29.98R
KINGSVILLE NAS MOCLDY    82  80  94 SE9       29.98R
COTULLA        LGT RAIN  85  74  69 SE15G23   29.94R
LAREDO         PTCLDY    86  72  62 SE18      29.95R
BROWNSVILLE    CLOUDY    82  78  88 SE13      29.99R
PORT ISABEL    PTCLDY   N/A N/A N/A S14       29.98R HAZE
HEBBRONVILLE     N/A     80  73  77 SE12      29.98R
MCALLEN        CLOUDY    84  77  79 SE12      29.97R
WESLACO        PTCLDY    81  76  85 SE13      29.97R
FALFURRIAS     PTCLDY    81  76  85 SE9       29.96R
EDINBURG       PTCLDY    83  76  80 SE13      29.97R
$$



USA.gov is the U.S. government's official web portal to all federal, state and local government web resources and services.